| time (UTC) | temp F | wind direction | speed MPH | gust MPH | rain 1hr in | rain 24hr in | rain mn in | humidity % | barometer mb |
| 20260506051012 | 67 | 359 | 6.0 | 10.0 | 0.00 | 0.00 | 0.00 | 89 | 1016.6 |
| 20260506050517 | 66 | 359 | 7.0 | 10.0 | 0.00 | 0.00 | 0.00 | 89 | 1016.6 |
| 20260506045009 | 66 | 359 | 7.0 | 10.0 | 0.00 | 0.00 | 0.00 | 90 | 1016.7 |
| 20260506044017 | 66 | 359 | 8.0 | 11.0 | 0.00 | 0.00 | 0.00 | 90 | 1016.8 |
| 20260506043509 | 66 | 359 | 7.0 | 10.0 | 0.00 | 0.00 | 0.00 | 90 | 1016.8 |
| 20260506043009 | 66 | 359 | 7.0 | 10.0 | 0.00 | 0.00 | 0.00 | 91 | 1016.9 |
| 20260506042509 | 66 | 359 | 7.0 | 10.0 | 0.00 | 0.00 | 0.00 | 91 | 1016.8 |
| 20260506042017 | 66 | 359 | 7.0 | 10.0 | 0.00 | 0.00 | 0.00 | 91 | 1016.9 |
| 20260506041522 | 66 | 359 | 8.0 | 11.0 | 0.00 | 0.00 | 0.00 | 91 | 1016.8 |
| 20260506041009 | 66 | 359 | 8.0 | 11.0 | 0.00 | 0.00 | 0.00 | 91 | 1016.8 |
| 20260506040515 | 66 | 359 | 7.0 | 10.0 | 0.00 | 0.00 | 0.00 | 90 | 1016.8 |
| 20260506040008 | 66 | 359 | 7.0 | 10.0 | 0.00 | 0.00 | 0.00 | 89 | 1016.9 |
| 20260506035507 | 66 | 359 | 7.0 | 10.0 | 0.00 | 0.00 | 0.00 | 89 | 1016.9 |
| 20260506035008 | 66 | 359 | 7.0 | 10.0 | 0.00 | 0.00 | 0.00 | 89 | 1017.0 |
| 20260506034009 | 66 | 359 | 6.0 | 10.0 | 0.00 | 0.00 | 0.00 | 88 | 1017.1 |
| 20260506033508 | 67 | 354 | 7.0 | 10.0 | 0.00 | 0.00 | 0.00 | 88 | 1017.1 |
| 20260506033008 | 67 | 359 | 6.0 | 8.0 | 0.00 | 0.00 | 0.00 | 87 | 1017.1 |
| 20260506032513 | 67 | 359 | 6.0 | 8.0 | 0.00 | 0.00 | 0.00 | 87 | 1017.2 |
| 20260506032008 | 67 | 354 | 5.0 | 9.0 | 0.00 | 0.00 | 0.00 | 85 | 1017.2 |
| 20260506031513 | 67 | 359 | 6.0 | 9.0 | 0.00 | 0.00 | 0.00 | 85 | 1017.2 |
| 20260506031008 | 67 | 359 | 5.0 | 9.0 | 0.00 | 0.00 | 0.00 | 86 | 1017.2 |
| 20260506030513 | 67 | 359 | 6.0 | 9.0 | 0.00 | 0.00 | 0.00 | 86 | 1017.2 |
| 20260506030009 | 67 | 359 | 7.0 | 9.0 | 0.00 | 0.00 | 0.00 | 86 | 1017.3 |
| 20260506025508 | 67 | 359 | 6.0 | 9.0 | 0.00 | 0.00 | 0.00 | 86 | 1017.4 |
| 20260506025009 | 67 | 359 | 6.0 | 9.0 | 0.00 | 0.00 | 0.00 | 87 | 1017.3 |
| 20260506024009 | 67 | 359 | 6.0 | 10.0 | 0.00 | 0.00 | 0.00 | 84 | 1017.5 |
| 20260506023509 | 67 | 354 | 7.0 | 10.0 | 0.00 | 0.00 | 0.00 | 84 | 1017.6 |
| 20260506023008 | 67 | 359 | 6.0 | 10.0 | 0.00 | 0.00 | 0.00 | 83 | 1017.6 |
| 20260506022508 | 67 | 359 | 7.0 | 9.0 | 0.00 | 0.00 | 0.00 | 83 | 1017.5 |
| 20260506022008 | 67 | 359 | 6.0 | 9.0 | 0.00 | 0.00 | 0.00 | 83 | 1017.6 |
| 20260506021508 | 67 | 359 | 6.0 | 9.0 | 0.00 | 0.00 | 0.00 | 83 | 1017.7 |
| 20260506021008 | 67 | 354 | 6.0 | 9.0 | 0.00 | 0.00 | 0.00 | 83 | 1017.7 |
| 20260506020512 | 67 | 359 | 6.0 | 9.0 | 0.00 | 0.00 | 0.00 | 82 | 1017.7 |
| 20260506020008 | 67 | 4 | 6.0 | 7.0 | 0.00 | 0.00 | 0.00 | 83 | 1017.6 |
| 20260506015507 | 67 | 8 | 5.0 | 6.0 | 0.00 | 0.00 | 0.00 | 83 | 1017.7 |
| 20260506015007 | 67 | 8 | 4.0 | 6.0 | 0.00 | 0.00 | 0.00 | 82 | 1017.7 |
| 20260506014007 | 68 | 8 | 4.0 | 7.0 | 0.00 | 0.00 | 0.00 | 81 | 1017.8 |
| 20260506013506 | 68 | 16 | 5.0 | 7.0 | 0.00 | 0.00 | 0.00 | 81 | 1017.8 |
| 20260506013017 | 68 | 16 | 5.0 | 7.0 | 0.00 | 0.00 | 0.00 | 80 | 1017.8 |
| 20260506012508 | 68 | 16 | 5.0 | 7.0 | 0.00 | 0.00 | 0.00 | 80 | 1017.8 |
| 20260506012008 | 68 | 16 | 4.0 | 7.0 | 0.00 | 0.00 | 0.00 | 79 | 1017.8 |
| 20260506011505 | 69 | 11 | 4.0 | 6.0 | 0.00 | 0.00 | 0.00 | 79 | 1017.9 |
| 20260506011006 | 69 | 9 | 4.0 | 6.0 | 0.00 | 0.00 | 0.00 | 78 | 1017.9 |
| 20260506010505 | 69 | 359 | 4.0 | 6.0 | 0.00 | 0.00 | 0.00 | 78 | 1017.9 |
| 20260506010005 | 69 | 359 | 4.0 | 6.0 | 0.00 | 0.00 | 0.00 | 79 | 1017.9 |
| 20260506005504 | 69 | 359 | 4.0 | 5.0 | 0.00 | 0.00 | 0.00 | 79 | 1017.9 |
| 20260506005010 | 69 | 359 | 4.0 | 5.0 | 0.00 | 0.00 | 0.00 | 79 | 1017.9 |
| 20260506004003 | 69 | 359 | 4.0 | 6.0 | 0.00 | 0.00 | 0.00 | 79 | 1017.9 |
| 20260506003504 | 69 | 359 | 4.0 | 6.0 | 0.00 | 0.00 | 0.00 | 79 | 1017.9 |
| 20260506003004 | 69 | 359 | 3.0 | 6.0 | 0.00 | 0.00 | 0.00 | 79 | 1017.9 |
| 20260506002502 | 69 | 359 | 3.0 | 5.0 | 0.00 | 0.00 | 0.00 | 79 | 1017.8 |
| 20260506002003 | 69 | 354 | 2.0 | 5.0 | 0.00 | 0.00 | 0.00 | 79 | 1017.8 |
| 20260506001503 | 69 | 359 | 2.0 | 5.0 | 0.00 | 0.00 | 0.00 | 79 | 1017.7 |
| 20260506001003 | 69 | 359 | 3.0 | 5.0 | 0.00 | 0.00 | 0.00 | 79 | 1017.8 |
| 20260506000503 | 69 | 359 | 3.0 | 5.0 | 0.00 | 0.00 | 0.00 | 79 | 1017.8 |
| 20260506000010 | 69 | 359 | 2.0 | 3.0 | 0.00 | 0.00 | 0.00 | 79 | 1017.8 |
| 20260505235506 | 69 | 359 | 2.0 | 4.0 | 0.00 | 0.00 | 0.00 | 79 | 1017.8 |
| 20260505235002 | 69 | 359 | 3.0 | 4.0 | 0.00 | 0.00 | 0.00 | 79 | 1017.8 |
| 20260505234005 | 69 | 359 | 0.0 | 2.0 | 0.00 | 0.00 | 0.00 | 79 | 1017.8 |
| 20260505233511 | 69 | 359 | 0.0 | 2.0 | 0.00 | 0.00 | 0.00 | 79 | 1017.8 |
| 20260505233004 | 69 | 359 | 0.0 | 2.0 | 0.00 | 0.00 | 0.00 | 78 | 1017.8 |
| 20260505232504 | 69 | 359 | 0.0 | 3.0 | 0.00 | 0.00 | 0.00 | 78 | 1017.8 |
| 20260505232004 | 69 | 359 | 1.0 | 2.0 | 0.00 | 0.00 | 0.00 | 78 | 1017.6 |
| 20260505231505 | 70 | 359 | 0.0 | 4.0 | 0.00 | 0.00 | 0.00 | 77 | 1017.7 |
| 20260505231004 | 70 | 359 | 1.0 | 5.0 | 0.00 | 0.00 | 0.00 | 77 | 1017.6 |
| 20260505230506 | 70 | 359 | 3.0 | 6.0 | 0.00 | 0.00 | 0.00 | 77 | 1017.7 |
| 20260505230004 | 70 | 359 | 4.0 | 6.0 | 0.00 | 0.00 | 0.00 | 76 | 1017.6 |
| 20260505225504 | 69 | 359 | 4.0 | 5.0 | 0.00 | 0.00 | 0.00 | 79 | 1017.6 |
| 20260505225004 | 69 | 359 | 4.0 | 5.0 | 0.00 | 0.00 | 0.00 | 80 | 1017.6 |
| 20260505224001 | 68 | 259 | 2.0 | 5.0 | 0.00 | 0.00 | 0.00 | 80 | 1017.5 |
| 20260505223504 | 68 | 259 | 3.0 | 6.0 | 0.00 | 0.00 | 0.00 | 80 | 1017.5 |
| 20260505223002 | 68 | 359 | 2.0 | 5.0 | 0.00 | 0.00 | 0.00 | 80 | 1017.5 |
| 20260505222502 | 69 | 259 | 3.0 | 6.0 | 0.00 | 0.00 | 0.00 | 80 | 1017.3 |
| 20260505222002 | 69 | 256 | 4.0 | 7.0 | 0.00 | 0.00 | 0.00 | 80 | 1017.3 |
| 20260505221501 | 69 | 359 | 4.0 | 7.0 | 0.00 | 0.00 | 0.00 | 80 | 1017.3 |
| 20260505221001 | 69 | 359 | 5.0 | 7.0 | 0.00 | 0.00 | 0.00 | 80 | 1017.3 |
| 20260505220601 | 69 | 261 | 4.0 | 7.0 | 0.00 | 0.00 | 0.00 | 80 | 1017.3 |
| 20260505220101 | 69 | 359 | 3.0 | 7.0 | 0.00 | 0.00 | 0.00 | 79 | 1017.3 |
| 20260505215600 | 69 | 359 | 3.0 | 9.0 | 0.00 | 0.00 | 0.00 | 79 | 1017.3 |
| 20260505215101 | 69 | 249 | 5.0 | 9.0 | 0.00 | 0.00 | 0.00 | 79 | 1017.3 |
| 20260505214006 | 69 | 222 | 4.0 | 8.0 | 0.00 | 0.00 | 0.00 | 78 | 1017.2 |
| 20260505213502 | 69 | 359 | 4.0 | 7.0 | 0.00 | 0.00 | 0.00 | 79 | 1017.2 |
| 20260505213002 | 69 | 257 | 4.0 | 7.0 | 0.00 | 0.00 | 0.00 | 79 | 1017.2 |
| 20260505212503 | 68 | 222 | 4.0 | 7.0 | 0.00 | 0.00 | 0.00 | 79 | 1017.1 |
| 20260505212002 | 69 | 258 | 3.0 | 8.0 | 0.00 | 0.00 | 0.00 | 78 | 1017.1 |
| 20260505211502 | 69 | 228 | 5.0 | 8.0 | 0.00 | 0.00 | 0.00 | 78 | 1017.1 |
| 20260505211002 | 69 | 359 | 3.0 | 8.0 | 0.00 | 0.00 | 0.00 | 78 | 1017.1 |
| 20260505210502 | 69 | 248 | 4.0 | 8.0 | 0.00 | 0.00 | 0.00 | 78 | 1017.0 |
| 20260505210006 | 69 | 359 | 5.0 | 8.0 | 0.00 | 0.00 | 0.00 | 77 | 1016.9 |
| 20260505205505 | 69 | 359 | 5.0 | 8.0 | 0.00 | 0.00 | 0.00 | 76 | 1016.9 |
| 20260505205004 | 69 | 359 | 5.0 | 8.0 | 0.00 | 0.00 | 0.00 | 77 | 1016.7 |
| 20260505204059 | 70 | 359 | 4.0 | 7.0 | 0.00 | 0.00 | 0.00 | 76 | 1016.8 |
| 20260505203602 | 71 | 359 | 4.0 | 7.0 | 0.00 | 0.00 | 0.00 | 76 | 1016.8 |
| 20260505203100 | 71 | 359 | 4.0 | 7.0 | 0.00 | 0.00 | 0.00 | 75 | 1016.8 |
| 20260505202559 | 71 | 359 | 5.0 | 7.0 | 0.00 | 0.00 | 0.00 | 74 | 1016.7 |
| 20260505202058 | 72 | 359 | 4.0 | 6.0 | 0.00 | 0.00 | 0.00 | 74 | 1016.6 |
| 20260505201606 | 72 | 359 | 3.0 | 6.0 | 0.00 | 0.00 | 0.00 | 74 | 1016.6 |
| 20260505201059 | 72 | 359 | 4.0 | 8.0 | 0.00 | 0.00 | 0.00 | 73 | 1016.5 |
| 20260505200559 | 72 | 252 | 4.0 | 8.0 | 0.00 | 0.00 | 0.00 | 74 | 1016.4 |
| 20260505200059 | 72 | 359 | 6.0 | 10.0 | 0.00 | 0.00 | 0.00 | 73 | 1016.5 |
| 20260505195558 | 73 | 359 | 7.0 | 10.0 | 0.00 | 0.00 | 0.00 | 72 | 1016.4 |
| 20260505195058 | 73 | 359 | 4.0 | 10.0 | 0.00 | 0.00 | 0.00 | 73 | 1016.6 |
| 20260505194100 | 72 | 359 | 5.0 | 8.0 | 0.00 | 0.00 | 0.00 | 73 | 1016.5 |
| 20260505193558 | 72 | 359 | 5.0 | 7.0 | 0.00 | 0.00 | 0.00 | 74 | 1016.5 |
| 20260505193058 | 72 | 359 | 5.0 | 9.0 | 0.00 | 0.00 | 0.00 | 72 | 1016.5 |
| 20260505192603 | 73 | 359 | 5.0 | 11.0 | 0.00 | 0.00 | 0.00 | 71 | 1016.5 |
| 20260505192057 | 74 | 359 | 7.0 | 12.0 | 0.00 | 0.00 | 0.00 | 69 | 1016.5 |
| 20260505191604 | 74 | 359 | 7.0 | 12.0 | 0.00 | 0.00 | 0.00 | 68 | 1016.4 |
| 20260505191057 | 75 | 359 | 4.0 | 12.0 | 0.00 | 0.00 | 0.00 | 69 | 1016.5 |
| 20260505190558 | 74 | 359 | 7.0 | 12.0 | 0.00 | 0.00 | 0.00 | 67 | 1016.5 |
| 20260505190113 | 75 | 359 | 4.0 | 10.0 | 0.00 | 0.00 | 0.00 | 67 | 1016.5 |
| 20260505185557 | 75 | 359 | 6.0 | 11.0 | 0.00 | 0.00 | 0.00 | 66 | 1016.5 |
| 20260505185057 | 74 | 359 | 7.0 | 14.0 | 0.00 | 0.00 | 0.00 | 66 | 1016.5 |
| 20260505184057 | 75 | 359 | 3.0 | 12.0 | 0.00 | 0.00 | 0.00 | 69 | 1016.5 |
| 20260505183557 | 74 | 359 | 7.0 | 11.0 | 0.00 | 0.00 | 0.00 | 68 | 1016.5 |
| 20260505183056 | 74 | 359 | 6.0 | 12.0 | 0.00 | 0.00 | 0.00 | 70 | 1016.6 |
| 20260505182556 | 74 | 359 | 6.0 | 11.0 | 0.00 | 0.00 | 0.00 | 69 | 1016.6 |
| 20260505182059 | 74 | 359 | 7.0 | 12.0 | 0.00 | 0.00 | 0.00 | 67 | 1016.5 |
| 20260505181559 | 75 | 359 | 7.0 | 12.0 | 0.00 | 0.00 | 0.00 | 66 | 1016.5 |
| 20260505181057 | 75 | 359 | 5.0 | 11.0 | 0.00 | 0.00 | 0.00 | 65 | 1016.5 |
| 20260505180555 | 75 | 220 | 6.0 | 11.0 | 0.00 | 0.00 | 0.00 | 68 | 1016.6 |
| 20260505180056 | 75 | 359 | 4.0 | 10.0 | 0.00 | 0.00 | 0.00 | 69 | 1016.6 |
| 20260505175554 | 75 | 359 | 7.0 | 11.0 | 0.00 | 0.00 | 0.00 | 69 | 1016.5 |
| 20260505175054 | 75 | 359 | 4.0 | 13.0 | 0.00 | 0.00 | 0.00 | 68 | 1016.6 |
| 20260505174055 | 75 | 359 | 7.0 | 12.0 | 0.00 | 0.00 | 0.00 | 68 | 1016.7 |
| 20260505173555 | 75 | 359 | 4.0 | 11.0 | 0.00 | 0.00 | 0.00 | 68 | 1016.7 |
| 20260505173053 | 75 | 359 | 6.0 | 13.0 | 0.00 | 0.00 | 0.00 | 68 | 1016.8 |
| 20260505172552 | 75 | 359 | 6.0 | 13.0 | 0.00 | 0.00 | 0.00 | 69 | 1016.9 |
| 20260505172053 | 75 | 359 | 7.0 | 13.0 | 0.00 | 0.00 | 0.00 | 65 | 1016.9 |
| 20260505171552 | 75 | 359 | 7.0 | 15.0 | 0.00 | 0.00 | 0.00 | 68 | 1017.0 |
| 20260505171055 | 75 | 255 | 9.0 | 15.0 | 0.00 | 0.00 | 0.00 | 68 | 1017.1 |
| 20260505170554 | 75 | 253 | 4.0 | 14.0 | 0.00 | 0.00 | 0.00 | 68 | 1017.2 |
| 20260505170057 | 74 | 359 | 8.0 | 14.0 | 0.00 | 0.00 | 0.00 | 69 | 1017.2 |
| 20260505165550 | 74 | 263 | 5.0 | 14.0 | 0.00 | 0.00 | 0.00 | 68 | 1017.3 |
| 20260505165050 | 75 | 359 | 9.0 | 14.0 | 0.00 | 0.00 | 0.00 | 68 | 1017.3 |
| 20260505164049 | 75 | 359 | 6.0 | 10.0 | 0.00 | 0.00 | 0.00 | 68 | 1017.4 |
| 20260505163553 | 75 | 359 | 6.0 | 11.0 | 0.00 | 0.00 | 0.00 | 70 | 1017.5 |
| 20260505163050 | 74 | 359 | 4.0 | 11.0 | 0.00 | 0.00 | 0.00 | 72 | 1017.6 |
| 20260505162546 | 74 | 224 | 5.0 | 12.0 | 0.00 | 0.00 | 0.00 | 72 | 1017.7 |
| 20260505162045 | 74 | 359 | 6.0 | 14.0 | 0.00 | 0.00 | 0.00 | 71 | 1017.7 |
| 20260505161545 | 74 | 359 | 7.0 | 15.0 | 0.00 | 0.00 | 0.00 | 71 | 1017.7 |
| 20260505161044 | 73 | 359 | 8.0 | 16.0 | 0.00 | 0.00 | 0.00 | 72 | 1017.8 |
| 20260505160547 | 73 | 359 | 10.0 | 16.0 | 0.00 | 0.00 | 0.00 | 70 | 1017.9 |
| 20260505153037 | 73 | 359 | 8.0 | 13.0 | 0.00 | 0.00 | 0.00 | 75 | 1018.4 |
| 20260505152535 | 73 | 359 | 8.0 | 15.0 | 0.00 | 0.00 | 0.00 | 73 | 1018.4 |
| 20260505152037 | 73 | 359 | 8.0 | 14.0 | 0.00 | 0.00 | 0.00 | 73 | 1018.5 |
| 20260505151535 | 73 | 359 | 9.0 | 14.0 | 0.00 | 0.00 | 0.00 | 75 | 1018.5 |
| 20260505151034 | 72 | 255 | 5.0 | 16.0 | 0.00 | 0.00 | 0.00 | 75 | 1018.6 |
| 20260505150536 | 72 | 359 | 9.0 | 16.0 | 0.00 | 0.00 | 0.00 | 76 | 1018.6 |
| 20260505140526 | 70 | 245 | 5.0 | 10.0 | 0.00 | 0.00 | 0.00 | 82 | 1019.5 |
| 20260505125002 | 67 | 359 | 9.0 | 12.0 | 0.00 | 0.00 | 0.00 | 86 | 1019.6 |
| 20260505124003 | 67 | 359 | 9.0 | 11.0 | 0.00 | 0.00 | 0.00 | 88 | 1019.5 |
| 20260505123501 | 67 | 359 | 8.0 | 13.0 | 0.00 | 0.00 | 0.00 | 89 | 1019.4 |
| 20260505123113 | 67 | 359 | 9.0 | 13.0 | 0.00 | 0.00 | 0.00 | 88 | 1019.3 |
| 20260505122559 | 66 | 359 | 8.0 | 12.0 | 0.00 | 0.00 | 0.00 | 89 | 1019.3 |
| 20260505122058 | 66 | 359 | 8.0 | 13.0 | 0.00 | 0.00 | 0.00 | 89 | 1019.3 |
| 20260505121556 | 66 | 359 | 9.0 | 13.0 | 0.00 | 0.00 | 0.00 | 89 | 1019.3 |
| 20260505121058 | 66 | 359 | 9.0 | 13.0 | 0.00 | 0.00 | 0.00 | 90 | 1019.1 |
| 20260505120553 | 66 | 359 | 9.0 | 13.0 | 0.00 | 0.00 | 0.00 | 90 | 1019.1 |
| 20260505120055 | 66 | 359 | 10.0 | 14.0 | 0.00 | 0.00 | 0.00 | 90 | 1019.1 |
| 20260505115551 | 66 | 359 | 10.0 | 14.0 | 0.00 | 0.00 | 0.00 | 90 | 1019.1 |
| 20260505115049 | 65 | 359 | 10.0 | 14.0 | 0.00 | 0.00 | 0.00 | 90 | 1019.1 |
| 20260505114048 | 65 | 359 | 10.0 | 14.0 | 0.00 | 0.00 | 0.00 | 90 | 1019.0 |
| 20260505113548 | 65 | 359 | 11.0 | 14.0 | 0.00 | 0.00 | 0.00 | 90 | 1018.9 |
| 20260505113050 | 65 | 359 | 10.0 | 14.0 | 0.00 | 0.00 | 0.00 | 90 | 1018.9 |
| 20260505112543 | 65 | 359 | 10.0 | 15.0 | 0.00 | 0.00 | 0.00 | 91 | 1018.8 |
| 20260505112042 | 65 | 359 | 9.0 | 15.0 | 0.00 | 0.00 | 0.00 | 91 | 1018.8 |
| 20260505111540 | 64 | 359 | 10.0 | 14.0 | 0.00 | 0.00 | 0.00 | 91 | 1018.7 |
| 20260505111039 | 64 | 359 | 9.0 | 13.0 | 0.00 | 0.00 | 0.00 | 92 | 1018.8 |
| 20260505110538 | 64 | 359 | 10.0 | 13.0 | 0.00 | 0.00 | 0.00 | 92 | 1018.6 |
| 20260505102024 | 63 | 359 | 10.0 | 12.0 | 0.00 | 0.00 | 0.00 | 93 | 1018.2 |
| 20260505101523 | 63 | 359 | 10.0 | 13.0 | 0.00 | 0.00 | 0.00 | 93 | 1018.2 |
| 20260505101022 | 63 | 359 | 10.0 | 13.0 | 0.00 | 0.00 | 0.00 | 93 | 1018.2 |
| 20260505100520 | 62 | 359 | 9.0 | 14.0 | 0.00 | 0.00 | 0.00 | 93 | 1018.1 |
| 20260505100026 | 63 | 359 | 9.0 | 15.0 | 0.00 | 0.00 | 0.00 | 93 | 1018.1 |
| 20260505095518 | 63 | 359 | 11.0 | 15.0 | 0.00 | 0.00 | 0.00 | 93 | 1018.1 |
| 20260505095017 | 63 | 359 | 11.0 | 16.0 | 0.00 | 0.00 | 0.00 | 93 | 1018.0 |
| 20260505093003 | 62 | 359 | 10.0 | 15.0 | 0.00 | 0.00 | 0.00 | 93 | 1017.5 |
| 20260505092503 | 62 | 359 | 8.0 | 15.0 | 0.00 | 0.00 | 0.00 | 93 | 1017.5 |
| 20260505092004 | 62 | 359 | 9.0 | 12.0 | 0.00 | 0.00 | 0.00 | 93 | 1017.4 |
| 20260505091503 | 62 | 359 | 9.0 | 15.0 | 0.00 | 0.00 | 0.00 | 93 | 1017.4 |
| 20260505091006 | 62 | 359 | 11.0 | 15.0 | 0.00 | 0.00 | 0.00 | 93 | 1017.3 |
| 20260505090502 | 62 | 359 | 9.0 | 14.0 | 0.00 | 0.00 | 0.00 | 93 | 1017.2 |
| 20260505090006 | 62 | 359 | 11.0 | 15.0 | 0.00 | 0.00 | 0.00 | 93 | 1017.2 |
| 20260505085100 | 62 | 359 | 11.0 | 15.0 | 0.00 | 0.00 | 0.00 | 93 | 1017.1 |
| 20260505084600 | 62 | 359 | 10.0 | 14.0 | 0.00 | 0.00 | 0.00 | 94 | 1017.1 |
| 20260505084100 | 62 | 359 | 9.0 | 14.0 | 0.00 | 0.00 | 0.00 | 94 | 1017.1 |
| 20260505083600 | 61 | 359 | 10.0 | 14.0 | 0.00 | 0.00 | 0.00 | 95 | 1017.1 |
| 20260505083109 | 61 | 359 | 10.0 | 14.0 | 0.00 | 0.00 | 0.00 | 95 | 1017.1 |
| 20260505082559 | 61 | 359 | 9.0 | 14.0 | 0.00 | 0.00 | 0.00 | 95 | 1017.1 |
| 20260505082100 | 61 | 359 | 10.0 | 14.0 | 0.00 | 0.00 | 0.00 | 95 | 1017.0 |
| 20260505081602 | 61 | 359 | 10.0 | 16.0 | 0.00 | 0.00 | 0.00 | 94 | 1016.9 |
| 20260505081059 | 62 | 359 | 12.0 | 16.0 | 0.00 | 0.00 | 0.00 | 94 | 1016.8 |
| 20260505080601 | 61 | 359 | 11.0 | 16.0 | 0.00 | 0.00 | 0.00 | 94 | 1016.8 |
| 20260505080059 | 61 | 359 | 10.0 | 18.0 | 0.00 | 0.00 | 0.00 | 94 | 1016.8 |
| 20260505075059 | 62 | 359 | 12.0 | 18.0 | 0.00 | 0.00 | 0.00 | 94 | 1016.8 |
| 20260505074559 | 62 | 359 | 12.0 | 18.0 | 0.00 | 0.00 | 0.00 | 94 | 1016.8 |
| 20260505074100 | 62 | 359 | 12.0 | 17.0 | 0.00 | 0.00 | 0.00 | 94 | 1016.8 |
| 20260505073559 | 62 | 262 | 11.0 | 20.0 | 0.00 | 0.00 | 0.00 | 94 | 1016.8 |
| 20260505073101 | 62 | 359 | 12.0 | 20.0 | 0.00 | 0.00 | 0.00 | 94 | 1016.8 |
| 20260505072558 | 61 | 359 | 13.0 | 20.0 | 0.00 | 0.00 | 0.00 | 94 | 1016.8 |
| 20260505072058 | 62 | 359 | 14.0 | 20.0 | 0.00 | 0.00 | 0.00 | 94 | 1016.8 |
| 20260505071559 | 62 | 359 | 14.0 | 19.0 | 0.00 | 0.00 | 0.00 | 94 | 1016.8 |
| 20260505071059 | 62 | 359 | 14.0 | 19.0 | 0.00 | 0.00 | 0.00 | 94 | 1016.9 |
| 20260505070558 | 62 | 359 | 13.0 | 18.0 | 0.00 | 0.00 | 0.00 | 93 | 1016.9 |
| 20260505070059 | 62 | 359 | 13.0 | 17.0 | 0.00 | 0.00 | 0.00 | 93 | 1017.0 |
| 20260505065100 | 62 | 359 | 12.0 | 17.0 | 0.00 | 0.00 | 0.00 | 94 | 1017.1 |
| 20260505064559 | 61 | 359 | 12.0 | 15.0 | 0.00 | 0.00 | 0.00 | 94 | 1017.2 |
| 20260505064059 | 61 | 359 | 11.0 | 14.0 | 0.00 | 0.00 | 0.00 | 95 | 1017.2 |
| 20260505063602 | 61 | 359 | 10.0 | 15.0 | 0.00 | 0.00 | 0.00 | 94 | 1017.3 |
| 20260505063102 | 62 | 359 | 11.0 | 15.0 | 0.00 | 0.00 | 0.00 | 94 | 1017.4 |
| 20260505062600 | 62 | 359 | 11.0 | 16.0 | 0.00 | 0.00 | 0.00 | 94 | 1017.4 |
| 20260505062059 | 62 | 359 | 11.0 | 16.0 | 0.00 | 0.00 | 0.00 | 93 | 1017.4 |
| 20260505061604 | 62 | 359 | 11.0 | 17.0 | 0.00 | 0.00 | 0.00 | 93 | 1017.4 |
| 20260505061101 | 62 | 359 | 12.0 | 17.0 | 0.00 | 0.00 | 0.00 | 93 | 1017.4 |
| 20260505060558 | 62 | 359 | 10.0 | 16.0 | 0.00 | 0.00 | 0.00 | 93 | 1017.5 |
| 20260505060058 | 62 | 359 | 12.0 | 16.0 | 0.00 | 0.00 | 0.00 | 93 | 1017.5 |
| 20260505055100 | 62 | 359 | 10.0 | 17.0 | 0.00 | 0.00 | 0.00 | 93 | 1017.6 |
| 20260505054558 | 62 | 359 | 10.0 | 17.0 | 0.00 | 0.00 | 0.00 | 93 | 1017.6 |
| 20260505054055 | 62 | 359 | 10.0 | 17.0 | 0.00 | 0.00 | 0.00 | 93 | 1017.6 |
| 20260505053554 | 62 | 359 | 11.0 | 17.0 | 0.00 | 0.00 | 0.00 | 93 | 1017.6 |
| 20260505053055 | 62 | 359 | 13.0 | 19.0 | 0.00 | 0.00 | 0.00 | 93 | 1017.7 |